Change the Weather History Date:

Monday, November 25, 2013

  Actual Average (KISN) Record (KISN)
Temperature  
Mean Temperature 21 °F 22 °F  
Max Temperature 28 °F 32 °F 67 °F (1960)
Min Temperature 14 °F 12 °F -26 °F (1996)
Degree Days  
Heating Degree Days 44 43  
Month to date heating degree days 912  
Since 1 July heating degree days 1939  
Cooling Degree Days 0 0  
Month to date cooling degree days 0  
Year to date cooling degree days 456  
Moisture  
Dew Point 20 °F    
Average Humidity 88    
Maximum Humidity 100    
Minimum Humidity 80    
Precipitation  
Precipitation 0.00 in 0.01 in 0.50 in (1896)
Month to date precipitation 0.56  
Year to date precipitation 13.66  
Sea Level Pressure  
Sea Level Pressure 30.17 in    
Wind  
Wind Speed 16 mph (NW)    
Max Wind Speed 22 mph    
Max Gust Speed 32 mph    
Visibility 10 miles    
Events Rain    
T = Trace of Precipitation, MM = Missing Value Source: NWS Daily Summary

Daily Weather History Graph

Daily Weather History Graph

Search for Another Location

Airport or City:

Trip Planner

Search our weather history database for the weather conditions in past years. The results will help you decide how hot, cold, wet, or windy it might be!

Date:

Astronomy

Nov. 25, 2013 Rise Set
Actual Time 8:17 AM CST 5:02 PM CST
Civil Twilight 7:42 AM CST 5:38 PM CST
Nautical Twilight 7:02 AM CST 6:17 PM CST
Astronomical Twilight 6:24 AM CST 6:55 PM CST
Moon No Moon Rise 1:15 PM CST (11/25)
Length of Visible Light 9h 56m
Length of Day
8h 44m
Waning Gibbous, 51% of the Moon is Illuminated
Nov 25
Waning Gibbous
Nov 25
Last Quarter
Dec 2
New
Dec 9
First Quarter
Dec 17
Full

Hourly Weather History & Observations

Time (CST) Temp. Windchill Dew Point Humidity Pressure Visibility Wind Dir Wind Speed Gust Speed Precip Events Conditions
12:15 AM 28.4 °F 16.6 °F 24.8 °F 86% 29.99 in 10.0 mi WNW 16.1 mph - N/A   Unknown
12:35 AM 28.4 °F 16.2 °F 24.8 °F 86% 29.99 in 10.0 mi WNW 17.3 mph 21.9 mph N/A   Unknown
12:55 AM 28.4 °F 17.0 °F 24.8 °F 86% 30.00 in 10.0 mi WNW 15.0 mph - N/A   Unknown
1:15 AM 26.6 °F 14.7 °F 24.8 °F 93% 30.00 in 10.0 mi WNW 15.0 mph - N/A   Unknown
1:35 AM 26.6 °F 14.3 °F 24.8 °F 93% 30.00 in 10.0 mi WNW 16.1 mph 20.7 mph N/A   Unknown
1:55 AM 26.6 °F 13.8 °F 24.8 °F 93% 30.01 in 10.0 mi WNW 17.3 mph - N/A   Unknown
2:15 AM 26.6 °F 13.8 °F 23.0 °F 86% 30.02 in 10.0 mi WNW 17.3 mph - N/A   Unknown
2:35 AM 26.6 °F 14.7 °F 23.0 °F 86% 30.03 in 10.0 mi WNW 15.0 mph 20.7 mph N/A   Unknown
2:55 AM 26.6 °F 14.3 °F 23.0 °F 86% 30.03 in 10.0 mi West 16.1 mph - N/A   Unknown
3:15 AM 24.8 °F 12.4 °F 23.0 °F 93% 30.04 in 10.0 mi West 15.0 mph - N/A   Unknown
3:35 AM 24.8 °F 11.5 °F 23.0 °F 93% 30.04 in 10.0 mi WNW 17.3 mph - N/A   Unknown
3:55 AM 24.8 °F 11.5 °F 23.0 °F 93% 30.04 in 10.0 mi WNW 17.3 mph - N/A   Unknown
4:15 AM 24.8 °F 12.4 °F 23.0 °F 93% 30.04 in 10.0 mi WNW 15.0 mph - N/A   Unknown
4:35 AM 24.8 °F 12.4 °F 21.2 °F 86% 30.05 in 10.0 mi WNW 15.0 mph - N/A   Unknown
4:55 AM 24.8 °F 12.4 °F 21.2 °F 86% 30.05 in 10.0 mi WNW 15.0 mph 19.6 mph N/A   Unknown
5:15 AM 24.8 °F 13.4 °F 21.2 °F 86% 30.06 in 10.0 mi WNW 12.7 mph - N/A   Unknown
5:35 AM 23.0 °F 11.7 °F 21.2 °F 93% 30.07 in 10.0 mi West 11.5 mph - N/A   Unknown
5:55 AM 23.0 °F 11.1 °F 19.4 °F 86% 30.08 in 10.0 mi West 12.7 mph - N/A   Unknown
6:15 AM 23.0 °F 11.1 °F 21.2 °F 93% 30.08 in 10.0 mi West 12.7 mph - N/A   Unknown
6:35 AM 24.8 °F 13.4 °F 19.4 °F 80% 30.08 in 10.0 mi West 12.7 mph 18.4 mph N/A   Unknown
6:55 AM 24.8 °F 13.4 °F 21.2 °F 86% 30.09 in 10.0 mi West 12.7 mph - N/A   Unknown
7:15 AM 24.8 °F 14.0 °F 21.2 °F 86% 30.09 in 10.0 mi WNW 11.5 mph 17.3 mph N/A   Unknown
7:35 AM 24.8 °F 10.7 °F 19.4 °F 80% 30.10 in 10.0 mi WNW 19.6 mph 24.2 mph N/A   Unknown
7:55 AM 24.8 °F 11.1 °F 19.4 °F 80% 30.10 in 10.0 mi WNW 18.4 mph 25.3 mph N/A   Unknown
8:15 AM 24.8 °F 11.9 °F 19.4 °F 80% 30.11 in 10.0 mi WNW 16.1 mph - N/A   Unknown
8:35 AM 24.8 °F 11.9 °F 21.2 °F 86% 30.12 in 10.0 mi WNW 16.1 mph - N/A   Unknown
8:55 AM 24.8 °F 11.5 °F 21.2 °F 86% 30.13 in 10.0 mi WNW 17.3 mph - N/A   Unknown
9:15 AM 24.8 °F 12.9 °F 21.2 °F 86% 30.14 in 10.0 mi WNW 13.8 mph - N/A   Unknown
9:35 AM 24.8 °F 13.4 °F 21.2 °F 86% 30.14 in 10.0 mi West 12.7 mph - N/A   Unknown
9:55 AM 24.8 °F 12.4 °F 21.2 °F 86% 30.15 in 10.0 mi WNW 15.0 mph - N/A   Unknown
10:15 AM 26.6 °F 14.7 °F 21.2 °F 80% 30.16 in 10.0 mi WNW 15.0 mph 24.2 mph N/A   Unknown
10:35 AM 26.6 °F 13.4 °F 21.2 °F 80% 30.17 in 10.0 mi WNW 18.4 mph 25.3 mph N/A   Unknown
10:55 AM 26.6 °F 12.4 °F 21.2 °F 80% 30.17 in 10.0 mi NW 21.9 mph 25.3 mph N/A   Unknown
11:15 AM 26.6 °F 13.1 °F 21.2 °F 80% 30.18 in 10.0 mi WNW 19.6 mph 27.6 mph N/A   Unknown
11:35 AM 26.6 °F 13.1 °F 21.2 °F 80% 30.19 in 10.0 mi WNW 19.6 mph 24.2 mph N/A   Unknown
11:55 AM 26.6 °F 13.1 °F 21.2 °F 80% 30.19 in 10.0 mi NW 19.6 mph 26.5 mph N/A   Unknown
12:15 PM 26.6 °F 13.4 °F 21.2 °F 80% 30.19 in 10.0 mi WNW 18.4 mph 26.5 mph N/A   Unknown
12:35 PM 26.6 °F 14.3 °F 21.2 °F 80% 30.19 in 10.0 mi WNW 16.1 mph 25.3 mph N/A   Unknown
12:55 PM 26.6 °F 13.4 °F 21.2 °F 80% 30.20 in 10.0 mi WNW 18.4 mph - N/A   Unknown
1:15 PM 26.6 °F 13.4 °F 23.0 °F 86% 30.20 in 10.0 mi NW 18.4 mph - N/A   Unknown
1:35 PM 26.6 °F 15.2 °F 23.0 °F 86% 30.20 in 10.0 mi WNW 13.8 mph 24.2 mph N/A   Unknown
1:55 PM 26.6 °F 13.1 °F 23.0 °F 86% 30.20 in 10.0 mi NW 19.6 mph 25.3 mph N/A   Unknown
2:15 PM 26.6 °F 13.4 °F 23.0 °F 86% 30.20 in 10.0 mi NW 18.4 mph 24.2 mph N/A   Unknown
2:35 PM 26.6 °F 14.3 °F 23.0 °F 86% 30.20 in 10.0 mi NW 16.1 mph 23.0 mph N/A   Unknown
2:55 PM 24.8 °F 11.1 °F 23.0 °F 93% 30.20 in 10.0 mi NW 18.4 mph 25.3 mph N/A   Unknown
3:15 PM 24.8 °F 11.5 °F 23.0 °F 93% 30.20 in 10.0 mi NW 17.3 mph 21.9 mph N/A   Unknown
3:35 PM 24.8 °F 11.1 °F 23.0 °F 93% 30.20 in 10.0 mi NW 18.4 mph 32.2 mph N/A   Unknown
3:55 PM 24.8 °F 12.9 °F 23.0 °F 93% 30.22 in 10.0 mi NW 13.8 mph 24.2 mph N/A   Unknown
4:15 PM 24.8 °F 10.0 °F 23.0 °F 93% 30.22 in 10.0 mi NW 21.9 mph 25.3 mph N/A Rain Light Freezing Rain
4:35 PM 24.8 °F 11.9 °F 23.0 °F 93% 30.23 in 10.0 mi NW 16.1 mph 20.7 mph N/A   Unknown
4:55 PM 24.8 °F 10.0 °F 23.0 °F 93% 30.24 in 10.0 mi NW 21.9 mph 27.6 mph N/A   Unknown
5:15 PM 24.8 °F 11.1 °F 23.0 °F 93% 30.24 in 10.0 mi NNW 18.4 mph - N/A   Unknown
5:35 PM 24.8 °F 10.7 °F 21.2 °F 86% 30.24 in 10.0 mi NW 19.6 mph 27.6 mph N/A   Unknown
5:55 PM 24.8 °F 10.7 °F 21.2 °F 86% 30.24 in 10.0 mi NW 19.6 mph 26.5 mph N/A   Unknown
6:15 PM 24.8 °F 10.0 °F 21.2 °F 86% 30.25 in 10.0 mi NW 21.9 mph 28.8 mph N/A   Unknown
6:35 PM 24.8 °F 10.3 °F 19.4 °F 80% 30.26 in 10.0 mi NW 20.7 mph 26.5 mph N/A   Unknown
6:55 PM 24.8 °F 10.3 °F 19.4 °F 80% 30.27 in 10.0 mi NNW 20.7 mph 25.3 mph N/A   Unknown
7:15 PM 23.0 °F 8.0 °F 19.4 °F 86% 30.28 in 10.0 mi North 20.7 mph 27.6 mph N/A   Unknown
7:35 PM 19.4 °F 4.1 °F 15.8 °F 86% 30.29 in 10.0 mi NNW 18.4 mph 25.3 mph N/A   Unknown
7:55 PM 19.4 °F 5.0 °F 15.8 °F 86% 30.29 in 10.0 mi NNW 16.1 mph 20.7 mph N/A   Unknown
8:15 PM 17.6 °F 4.3 °F 14.0 °F 86% 30.30 in 10.0 mi NNW 12.7 mph - N/A   Unknown
8:35 PM 15.8 °F 2.7 °F 14.0 °F 93% 30.31 in 10.0 mi NNW 11.5 mph - N/A   Unknown
8:55 PM 15.8 °F 2.7 °F 14.0 °F 93% 30.32 in 10.0 mi NNW 11.5 mph - N/A   Unknown
9:15 PM 14.0 °F 3.9 °F 14.0 °F 100% 30.33 in 10.0 mi NW 6.9 mph - N/A   Unknown
9:35 PM 15.8 °F 4.2 °F 14.0 °F 93% 30.33 in 10.0 mi NNW 9.2 mph - N/A   Unknown
9:55 PM 15.8 °F 4.2 °F 14.0 °F 93% 30.33 in 10.0 mi NW 9.2 mph - N/A   Unknown
10:15 PM 14.0 °F 2.0 °F 14.0 °F 100% 30.34 in 10.0 mi NW 9.2 mph - N/A   Unknown
10:35 PM 15.8 °F 4.2 °F 14.0 °F 93% 30.34 in 10.0 mi NW 9.2 mph - N/A   Unknown
10:55 PM 15.8 °F 3.4 °F 14.0 °F 93% 30.34 in 10.0 mi WNW 10.4 mph - N/A   Unknown
11:15 PM 15.8 °F 2.7 °F 14.0 °F 93% 30.34 in 10.0 mi WNW 11.5 mph - N/A   Unknown
11:35 PM 15.8 °F 2.7 °F 14.0 °F 93% 30.34 in 10.0 mi WNW 11.5 mph - N/A   Unknown
11:55 PM 15.8 °F 2.1 °F 15.8 °F 100% 30.35 in 10.0 mi WNW 12.7 mph - N/A   Unknown